Regional Weather Roundup
Issued by NWS

Home | Current Version | Previous Version | Graphics & Text | Print | Product List | Glossary On
Versions: 1 2 3 4 5 6 7 8 9 10 11 12 13 14 15 16 17 18 19 20 21 22 23 24 25 26 27 28 29 30 31 32 33 34 35 36 37 38 39 40 41 42 43 44 45 46 47 48 49 50
325
ASUS44 KLIX 240010
RWRLA
LOUISIANA WEATHER ROUNDUP
NATIONAL WEATHER SERVICE NEW ORLEANS LA
700 PM CDT THU OCT 23 2014

NOTE: "FAIR" INDICATES FEW OR NO CLOUDS BELOW 12,000 FEET WITH NO
      SIGNIFICANT WEATHER AND/OR OBSTRUCTIONS TO VISIBILITY.
      SKY/WX - SKY CONDITION AND SIGNIFICANT WEATHER.
      TMP - AIR TEMPERATURE.    DP   - DEWPOINT TEMPERATURE.
      RH  - RELATIVE HUMIDITY.  PRES - PRESSURE.
      HX  - HEAT INDEX.         WCI  - WIND CHILL INDEX.

*  THESE STATIONS ARE NOT NWS OR FAA STATIONS AND ARE NOT UNDER
   NWS QUALITY CONTROL.

LAZ040-048-061>063-065-066-069-240100-
SOUTHEAST LOUISIANA

CITY           SKY/WX    TMP DP  RH WIND       PRES   REMARKS
N.O. AUDUBON     N/A     70  52  53 MISG        N/A
6HR MIN TEMP:  69; 6HR MAX TEMP:  77;

N.O. INTL ARPT CLOUDY    69  46  43 CALM      30.05S
6HR MIN TEMP:  69; 6HR MAX TEMP:  74;

N.O. LAKEFRONT CLOUDY    68  50  52 SE6       30.05F
6HR MIN TEMP:  68; 6HR MAX TEMP:  75;

N.O. DOWNTOWN* FAIR      70  46  43 E3        30.05F
6HR MIN TEMP:  70; 6HR MAX TEMP:  75;

SLIDELL        CLOUDY    62  56  80 CALM      30.04F
6HR MIN TEMP:  62; 6HR MAX TEMP:  76;

BATON ROUGE    MOCLDY    63  52  67 NW5       30.08R
6HR MIN TEMP:  63; 6HR MAX TEMP:  77;

BOOTHVILLE     MOCLDY    69  60  73 N5        30.05R
6HR MIN TEMP:  69; 6HR MAX TEMP:  75;

BELLE CHASSE   CLOUDY    61  54  77 NE3       30.05R
6HR MIN TEMP:  61; 6HR MAX TEMP:  75;

BOGALUSA*        N/A     66  47  50 CALM      30.07S
6HR MIN TEMP:  65; 6HR MAX TEMP:  78;

NEW ROADS*     FAIR      62  53  73 N3        30.08R
6HR MIN TEMP:  62; 6HR MAX TEMP:  73;

GONZALES*      FAIR      62  59  90 CALM      30.06R
6HR MIN TEMP:  62; 6HR MAX TEMP:  75;

HAMMOND*       CLOUDY    64  50  59 N3        30.08R
HOUMA*         CLEAR     64  52  63 NE8       30.04F
PORT FOURCHON* CLEAR     70  52  52 NE8       30.08R

$$

LAZ041-044-053-054-240100-
SOUTHWEST LOUISIANA

CITY           SKY/WX    TMP DP  RH WIND       PRES   REMARKS
LAKE CHARLES   CLEAR     65  53  65 VRB6      30.07S
6HR MIN TEMP:  65; 6HR MAX TEMP:  75;

LAFAYETTE      PTCLDY    65  51  60 N8        30.08R
6HR MIN TEMP:  65; 6HR MAX TEMP:  77;

PATTERSON      CLOUDY    64  57  77 E5        30.09R
6HR MIN TEMP:  64; 6HR MAX TEMP:  75;

SALT POINT       N/A     69  55  60 CALM      30.05S
6HR MIN TEMP:  69; 6HR MAX TEMP:  78;

NEW IBERIA     MOCLDY    63  52  67 N8        30.08R
6HR MIN TEMP:  63; 6HR MAX TEMP:  77;

CHENAULT AIRPK NOT AVBL

$$

LAZ027-028-240100-
CENTRAL LOUISIANA

CITY           SKY/WX    TMP DP  RH WIND       PRES   REMARKS
FORT POLK      PTCLDY    62  54  75 N6        30.09S
6HR MIN TEMP:  62; 6HR MAX TEMP:  71;

ALEXANDRIA INT PTCLDY    60  51  72 N5        30.09S
6HR MIN TEMP:  60; 6HR MAX TEMP:  71;

ALEXANDRIA     PTCLDY    57  52  83 CALM      30.11R
6HR MIN TEMP:  57; 6HR MAX TEMP:  69;


$$

LAZ001-002-240100-
NORTHWEST LOUISIANA

CITY           SKY/WX    TMP DP  RH WIND       PRES   REMARKS
SHREVEPORT     PTCLDY    63  49  60 NE6       30.10S
6HR MIN TEMP:  62; 6HR MAX TEMP:  72;

BARKSDALE AFB  CLEAR     61  49  66 NE6       30.11S
6HR MIN TEMP:  61; 6HR MAX TEMP:  72;

DTN SHREVEPORT CLEAR     60  50  69 NE3       30.11S
6HR MIN TEMP:  59; 6HR MAX TEMP:  71;


$$

LAZ014-016-240100-
NORTHEAST LOUISIANA

CITY           SKY/WX    TMP DP  RH WIND       PRES   REMARKS
MONROE         PTCLDY    55  51  86 CALM      30.14R
6HR MIN TEMP:  55; 6HR MAX TEMP:  67;

TALLULAH       MOCLDY    58  48  69 N5        30.12R
6HR MIN TEMP:  58; 6HR MAX TEMP:  69;


$$




USA.gov is the U.S. government's official web portal to all federal, state and local government web resources and services.